Weather History for Pompano Beach, FL

Change the Weather History Date:

Tuesday, February 19, 2013

  Actual Average Record
Temperature  
Mean Temperature 72 °F -  
Max Temperature 75 °F 79 °F 87 °F (2012)
Min Temperature 66 °F 61 °F 36 °F (1958)
Cooling Degree Days 6    
Growing Degree Days 22 (Base 50)    
Moisture  
Dew Point 60 °F    
Average Humidity 69    
Maximum Humidity 97    
Minimum Humidity 58    
Precipitation  
Precipitation 0.00 in - - ()
Sea Level Pressure  
Sea Level Pressure 30.16 in    
Wind  
Wind Speed 12 mph (SSE)    
Max Wind Speed 17 mph    
Max Gust Speed 24 mph    
Visibility 10 miles    
Events      
Averages and records for this station are not official NWS values.
T = Trace of Precipitation, MM = Missing Value Source: NWS Daily Summary

Daily Weather History Graph

Daily Weather History Graph

Search for Another Location

Airport:

Trip Planner

Search our weather history database for the weather conditions in past years. The results will help you decide how hot, cold, wet, or windy it might be!

Date:

Astronomy

Feb. 19, 2013 Rise Set
Actual Time 6:52 AM EST 6:16 PM EST
Civil Twilight 6:29 AM EST 6:39 PM EST
Nautical Twilight 6:02 AM EST 7:06 PM EST
Astronomical Twilight 5:35 AM EST 7:33 PM EST
Moon 1:03 PM EST (2/19) 2:06 AM EST (2/19)
Length of Visible Light 12h 10m
Length of Day
11h 23m
Waxing Gibbous, 67% of the Moon is Illuminated
Feb 19
Waxing Gibbous
Feb 25
Full
Mar 4
Last Quarter
Mar 11
New
Mar 19
First Quarter

Hourly Weather History & Observations

Time (EST) Temp. Dew Point Humidity Pressure Visibility Wind Dir Wind Speed Gust Speed Precip Events Conditions
12:53 AM 68.0 °F 53.1 °F 59% 30.20 in 10.0 mi SE 16.1 mph 24.2 mph N/A   Clear
1:53 AM 68.0 °F 54.0 °F 61% 30.19 in 10.0 mi SE 16.1 mph - N/A   Clear
2:53 AM 68.0 °F 53.1 °F 59% 30.18 in 10.0 mi SE 13.8 mph 23.0 mph N/A   Scattered Clouds
3:53 AM 68.0 °F 54.0 °F 61% 30.17 in 10.0 mi SE 10.4 mph - N/A   Mostly Cloudy
4:53 AM 68.0 °F 53.1 °F 59% 30.16 in 10.0 mi SE 13.8 mph - N/A   Partly Cloudy
5:53 AM 68.0 °F 55.9 °F 65% 30.17 in 10.0 mi SE 8.1 mph - N/A   Scattered Clouds
6:53 AM 69.1 °F 57.0 °F 65% 30.19 in 10.0 mi ESE 12.7 mph - N/A   Mostly Cloudy
7:53 AM 71.1 °F 57.0 °F 61% 30.19 in 10.0 mi SE 13.8 mph - N/A   Partly Cloudy
8:53 AM 73.0 °F 57.9 °F 59% 30.20 in 10.0 mi SE 12.7 mph - N/A   Scattered Clouds
9:53 AM 73.9 °F 59.0 °F 59% 30.20 in 10.0 mi SE 16.1 mph - N/A   Scattered Clouds
10:53 AM 75.9 °F 60.1 °F 58% 30.20 in 10.0 mi SE 17.3 mph 23.0 mph N/A   Scattered Clouds
11:53 AM 75.0 °F 61.0 °F 62% 30.20 in 10.0 mi SE 10.4 mph - N/A   Mostly Cloudy
1:53 PM 75.0 °F 63.0 °F 66% 30.15 in 10.0 mi SSE 12.7 mph - N/A   Mostly Cloudy
2:53 PM 75.9 °F 64.0 °F 67% 30.13 in 10.0 mi SSE 13.8 mph - 0.00 in   Mostly Cloudy
3:53 PM 73.9 °F 64.0 °F 71% 30.12 in 10.0 mi SSE 12.7 mph 19.6 mph N/A   Scattered Clouds
4:53 PM 73.9 °F 64.9 °F 73% 30.11 in 10.0 mi South 10.4 mph - N/A   Scattered Clouds
5:53 PM 73.0 °F 64.0 °F 73% 30.11 in 10.0 mi South 11.5 mph - N/A   Scattered Clouds
8:53 PM 72.0 °F 66.9 °F 84% 30.14 in 10.0 mi South 4.6 mph - N/A   Overcast
9:53 PM 72.0 °F 66.9 °F 84% 30.14 in 10.0 mi Calm Calm - N/A   Mostly Cloudy
10:50 PM 69.8 °F 66.2 °F 88% 30.13 in 10.0 mi WSW 3.5 mph - N/A   Mostly Cloudy
10:53 PM 70.0 °F 66.9 °F 90% 30.13 in 10.0 mi WSW 3.5 mph - N/A   Mostly Cloudy
11:53 PM 66.9 °F 66.0 °F 97% 30.12 in 10.0 mi Calm Calm - N/A   Clear